• In Hungary
  • List of Countries
  • For 7 days
  • Water Temperature
  • Satellite Maps
  • Weather Map
  • News
  • Weather Widgets
  • user-avatar
    Login

    Hourly Weather Todiresti

    Today, 19 October, Friday

    Time Temperature Precipitation Wind Pressure Humidity
    00:00 +14°C° 0 mm 0 mps 755 mmHg 56%
    01:00 +14°C° 0 mm 0 mps 755 mmHg 58%
    02:00 +13°C° 0 mm 0 mps 755 mmHg 60%
    03:00 +13°C° 0 mm 0 mps 755 mmHg 62%
    04:00 +13°C° 0 mm 0 mps 754 mmHg 63%
    05:00 +13°C° 0 mm 0 mps 754 mmHg 64%
    06:00 +13°C° 0 mm 0 mps 754 mmHg 63%
    07:00 +14°C° 0 mm 0 mps 754 mmHg 61%
    08:00 +14°C° 0 mm 0 mps 755 mmHg 60%
    09:00 +16°C° 0 mm 0 mps 755 mmHg 55%
    10:00 +19°C° 0 mm 1 mps 755 mmHg 51%
    11:00 +20°C° 0 mm 1 mps 755 mmHg 46%
    12:00 +21°C° 0 mm 1 mps 754 mmHg 45%
    13:00 +21°C° 0 mm 1 mps 754 mmHg 43%
    14:00 +22°C° 0 mm 1 mps 754 mmHg 42%
    15:00 +21°C° 0 mm 1 mps 754 mmHg 44%
    16:00 +20°C° 0 mm 1 mps 754 mmHg 46%
    17:00 +20°C° 0 mm 1 mps 754 mmHg 48%
    18:00 +19°C° 0 mm 1 mps 754 mmHg 50%
    19:00 +19°C° 0 mm 1 mps 754 mmHg 51%
    20:00 +18°C° 0 mm 1 mps 755 mmHg 52%
    21:00 +17°C° 0 mm 2 mps 755 mmHg 55%
    22:00 +16°C° 0 mm 2 mps 755 mmHg 57%
    23:00 +16°C° 0 mm 2 mps 755 mmHg 60%

    Tomorrow, 20 October, Saturday

    Time Temperature Precipitation Wind Pressure Humidity
    00:00 +15°C° 0 mm 2 mps 755 mmHg 64%
    01:00 +15°C° 0 mm 2 mps 755 mmHg 68%
    02:00 +14°C° 0 mm 2 mps 755 mmHg 72%
    03:00 +13°C° 0 mm 3 mps 755 mmHg 74%
    04:00 +12°C° 0 mm 3 mps 755 mmHg 77%
    05:00 +12°C° 0 mm 3 mps 755 mmHg 80%
    06:00 +12°C° 0 mm 3 mps 755 mmHg 79%
    07:00 +13°C° 0 mm 3 mps 756 mmHg 78%
    08:00 +13°C° 0 mm 4 mps 756 mmHg 76%
    09:00 +15°C° 0 mm 4 mps 756 mmHg 69%
    10:00 +17°C° 0 mm 4 mps 756 mmHg 61%
    11:00 +19°C° 0 mm 4 mps 756 mmHg 54%
    12:00 +20°C° 0 mm 5 mps 756 mmHg 50%
    13:00 +21°C° 0 mm 5 mps 756 mmHg 47%
    14:00 +21°C° 0 mm 5 mps 755 mmHg 44%
    15:00 +20°C° 0 mm 4 mps 755 mmHg 46%
    16:00 +20°C° 0 mm 4 mps 755 mmHg 49%
    17:00 +19°C° 0 mm 3 mps 755 mmHg 52%
    18:00 +18°C° 0 mm 3 mps 756 mmHg 57%
    19:00 +17°C° 0 mm 3 mps 756 mmHg 61%
    20:00 +16°C° 0 mm 3 mps 756 mmHg 65%
    21:00 +16°C° 0 mm 3 mps 756 mmHg 68%
    22:00 +14°C° 0 mm 3 mps 756 mmHg 71%
    23:00 +14°C° 0 mm 3 mps 756 mmHg 74%

    Day after tomorrow, 21 October, Sunday

    Time Temperature Precipitation Wind Pressure Humidity
    00:00 +13°C° 0 mm 3 mps 756 mmHg 77%
    01:00 +13°C° 0 mm 3 mps 756 mmHg 80%
    02:00 +12°C° 0 mm 3 mps 756 mmHg 84%
    03:00 +12°C° 0 mm 3 mps 756 mmHg 84%
    04:00 +12°C° 0 mm 3 mps 756 mmHg 85%
    05:00 +11°C° 0 mm 3 mps 756 mmHg 86%
    06:00 +12°C° 0.1 mm 3 mps 756 mmHg 83%
    07:00 +12°C° 0.1 mm 4 mps 756 mmHg 79%
    08:00 +12°C° 0.1 mm 4 mps 756 mmHg 76%
    09:00 +13°C° 0.4 mm 4 mps 756 mmHg 71%
    10:00 +13°C° 0.4 mm 4 mps 756 mmHg 66%
    11:00 +13°C° 0.4 mm 4 mps 756 mmHg 61%
    12:00 +14°C° 0.1 mm 4 mps 756 mmHg 57%
    13:00 +14°C° 0.1 mm 4 mps 756 mmHg 52%
    14:00 +14°C° 0.1 mm 4 mps 756 mmHg 47%
    15:00 +14°C° 0.1 mm 4 mps 756 mmHg 48%
    16:00 +13°C° 0.1 mm 3 mps 756 mmHg 49%
    17:00 +13°C° 0.1 mm 3 mps 756 mmHg 49%
    18:00 +12°C° 0.1 mm 3 mps 756 mmHg 51%
    19:00 +12°C° 0.1 mm 3 mps 756 mmHg 53%
    20:00 +11°C° 0.1 mm 3 mps 756 mmHg 55%
    21:00 +11°C° 0 mm 3 mps 756 mmHg 57%
    22:00 +11°C° 0 mm 3 mps 757 mmHg 59%
    23:00 +10°C° 0 mm 4 mps 757 mmHg 61%

    22 October, Monday

    Time Temperature Precipitation Wind Pressure Humidity
    00:00 +10°C° 0 mm 3 mps 757 mmHg 64%
    01:00 +9°C° 0 mm 3 mps 757 mmHg 66%
    02:00 +9°C° 0 mm 3 mps 757 mmHg 68%
    03:00 +8°C° 0 mm 3 mps 757 mmHg 70%
    04:00 +8°C° 0 mm 3 mps 757 mmHg 71%
    05:00 +8°C° 0 mm 3 mps 757 mmHg 72%
    06:00 +8°C° 0 mm 3 mps 757 mmHg 72%
    07:00 +7°C° 0 mm 4 mps 757 mmHg 72%
    08:00 +7°C° 0 mm 4 mps 757 mmHg 72%
    09:00 +10°C° 0 mm 4 mps 757 mmHg 67%
    10:00 +10°C° 0 mm 5 mps 757 mmHg 62%
    11:00 +13°C° 0 mm 5 mps 757 mmHg 57%
    12:00 +14°C° 0 mm 5 mps 757 mmHg 55%
    13:00 +15°C° 0 mm 5 mps 756 mmHg 53%
    14:00 +15°C° 0 mm 5 mps 756 mmHg 51%
    15:00 +15°C° 0 mm 4 mps 755 mmHg 54%
    16:00 +14°C° 0 mm 4 mps 755 mmHg 56%
    17:00 +13°C° 0 mm 3 mps 755 mmHg 59%
    18:00 +13°C° 0 mm 3 mps 755 mmHg 62%
    19:00 +12°C° 0 mm 3 mps 755 mmHg 65%
    20:00 +11°C° 0 mm 3 mps 755 mmHg 68%
    21:00 +10°C° 0 mm 3 mps 755 mmHg 70%
    22:00 +10°C° 0 mm 3 mps 755 mmHg 72%
    23:00 +9°C° 0 mm 3 mps 755 mmHg 73%

    23 October, Tuesday

    Time Temperature Precipitation Wind Pressure Humidity
    00:00 +9°C° 0 mm 2 mps 755 mmHg 74%
    01:00 +9°C° 0 mm 2 mps 754 mmHg 75%
    02:00 +8°C° 0 mm 2 mps 754 mmHg 76%
    03:00 +8°C° 0 mm 2 mps 754 mmHg 77%
    04:00 +8°C° 0 mm 2 mps 754 mmHg 78%
    05:00 +7°C° 0 mm 2 mps 754 mmHg 80%
    06:00 +8°C° 0 mm 2 mps 754 mmHg 77%
    07:00 +8°C° 0 mm 2 mps 754 mmHg 75%
    08:00 +8°C° 0 mm 3 mps 754 mmHg 73%
    09:00 +10°C° 0 mm 3 mps 754 mmHg 66%
    10:00 +11°C° 0 mm 3 mps 753 mmHg 59%
    11:00 +13°C° 0 mm 3 mps 753 mmHg 52%
    12:00 +14°C° 0 mm 3 mps 753 mmHg 50%
    13:00 +14°C° 0 mm 3 mps 752 mmHg 48%
    14:00 +16°C° 0 mm 3 mps 752 mmHg 46%
    15:00 +14°C° 0 mm 3 mps 752 mmHg 49%
    16:00 +14°C° 0 mm 2 mps 752 mmHg 52%
    17:00 +13°C° 0 mm 2 mps 752 mmHg 55%
    18:00 +12°C° 0 mm 2 mps 752 mmHg 58%
    19:00 +12°C° 0 mm 2 mps 752 mmHg 61%
    20:00 +10°C° 0 mm 2 mps 752 mmHg 64%
    21:00 +9°C° 0 mm 2 mps 752 mmHg 65%
    22:00 +9°C° 0 mm 2 mps 753 mmHg 66%
    23:00 +8°C° 0 mm 2 mps 753 mmHg 67%

    24 October, Wednesday

    Time Temperature Precipitation Wind Pressure Humidity
    00:00 +8°C° 0 mm 3 mps 752 mmHg 69%
    01:00 +7°C° 0 mm 3 mps 752 mmHg 72%
    02:00 +7°C° 0 mm 3 mps 752 mmHg 75%
    03:00 +5°C° 0 mm 3 mps 752 mmHg 78%
    04:00 +6°C° 0 mm 2 mps 752 mmHg 81%
    05:00 +5°C° 0 mm 2 mps 752 mmHg 84%
    06:00 +6°C° 0 mm 2 mps 751 mmHg 81%
    07:00 +6°C° 0 mm 2 mps 751 mmHg 79%
    08:00 +7°C° 0 mm 1 mps 751 mmHg 76%
    09:00 +8°C° 0 mm 2 mps 750 mmHg 68%
    10:00 +9°C° 0 mm 2 mps 749 mmHg 59%
    11:00 +11°C° 0 mm 3 mps 749 mmHg 51%
    12:00 +12°C° 0 mm 3 mps 748 mmHg 47%
    13:00 +14°C° 0 mm 4 mps 747 mmHg 42%
    14:00 +15°C° 0 mm 5 mps 745 mmHg 38%
    15:00 +15°C° 0 mm 5 mps 745 mmHg 37%
    16:00 +14°C° 0 mm 5 mps 744 mmHg 35%
    17:00 +14°C° 0 mm 5 mps 743 mmHg 33%
    18:00 +13°C° 0 mm 6 mps 743 mmHg 37%
    19:00 +13°C° 0 mm 6 mps 742 mmHg 42%
    20:00 +11°C° 0 mm 6 mps 741 mmHg 46%
    21:00 +11°C° 0.3 mm 6 mps 741 mmHg 51%
    22:00 +11°C° 0.3 mm 6 mps 741 mmHg 56%
    23:00 +11°C° 0.3 mm 6 mps 741 mmHg 61%
    Show more